DW7533 Weather Reports


time (UTC)temp
C
wind
direction
speed
KPH
gust
KPH
rain 1hr
cm
rain 24hr
cm
rain mn
cm
humidity
%
barometer
mb
20260506034305 18 73 8.0 12.9 0.00 0.00 0.00 68 1031.1
20260506033804 18 91 4.8 14.5 0.00 0.00 0.00 70 1031.7
20260506033305 17 64 4.8 22.5 0.00 0.00 0.00 68 1031.7
20260506032805 17 92 6.4 19.3 0.00 0.00 0.00 68 1031.7
20260506032306 17 85 4.8 14.5 0.00 0.00 0.00 69 1031.7
20260506031806 17 49 11.3 20.9 0.00 0.00 0.00 70 1031.7
20260506031305 17 88 8.0 14.5 0.00 0.00 0.00 69 1031.7
20260506030305 17 29 3.2 11.3 0.00 0.00 0.00 72 1031.7
20260506025805 17 72 8.0 19.3 0.00 0.00 0.00 71 1031.7
20260506025306 16 102 9.7 25.7 0.00 0.00 0.00 71 1031.8
20260506024805 16 56 9.7 25.7 0.00 0.00 0.00 72 1031.8
20260506024306 16 59 11.3 19.3 0.00 0.00 0.00 71 1032.2
20260506023807 17 61 3.2 11.3 0.00 0.00 0.00 72 1032.2
20260506023305 16 34 4.8 14.5 0.00 0.00 0.00 72 1032.2
20260506022307 16 98 4.8 12.9 0.00 0.00 0.00 73 1032.2
20260506021804 16 51 9.7 19.3 0.00 0.00 0.00 73 1032.2
20260506021305 16 40 14.5 24.1 0.00 0.00 0.00 73 1032.2
20260506020804 16 59 9.7 20.9 0.00 0.00 0.00 72 1032.2
20260506015805 16 103 4.8 12.9 0.00 0.00 0.00 74 1032.2
20260506015306 16 49 4.8 16.1 0.00 0.00 0.00 73 1032.2
20260506014804 15 73 4.8 16.1 0.00 0.00 0.00 74 1032.2
20260506014305 15 65 4.8 19.3 0.00 0.00 0.00 75 1032.2
20260506013806 15 57 9.7 20.9 0.00 0.00 0.00 75 1032.2
20260506013306 15 53 8.0 14.5 0.00 0.00 0.00 76 1032.3
20260506011805 15 42 4.8 16.1 0.00 0.00 0.00 78 1032.3
20260506011305 14 106 9.7 16.1 0.00 0.00 0.00 78 1032.3
20260506010805 14 78 8.0 22.5 0.00 0.00 0.00 79 1032.2
20260506010305 14 64 6.4 19.3 0.00 0.00 0.00 80 1032.2
20260506005805 14 102 8.0 11.3 0.00 0.00 0.00 79 1032.2
20260506005306 13 54 4.8 14.5 0.00 0.00 0.00 80 1032.2
20260506004805 13 68 8.0 14.5 0.00 0.00 0.00 81 1032.2
20260506003804 13 100 4.8 14.5 0.00 0.00 0.00 81 1032.0
20260506003304 13 87 4.8 19.3 0.00 0.00 0.00 82 1032.0
20260506002805 13 41 4.8 11.3 0.00 0.00 0.00 82 1032.0
20260506002306 13 76 8.0 12.9 0.00 0.00 0.00 82 1032.0
20260506001806 13 45 8.0 16.1 0.00 0.00 0.00 82 1031.6
20260506001305 12 106 8.0 12.9 0.00 0.00 0.00 83 1031.6
20260505235805 12 92 8.0 14.5 0.00 0.00 0.00 84 1031.6
20260505235305 12 42 6.4 12.9 0.00 0.00 0.00 84 1031.6
20260505234805 12 73 9.7 16.1 0.00 0.00 0.00 84 1031.6
20260505234305 12 39 8.0 20.9 0.00 0.00 0.00 84 1031.7
20260505233805 12 65 4.8 16.1 0.00 0.00 0.00 84 1031.7
20260505233305 12 45 8.0 12.9 0.00 0.00 0.00 85 1031.2
20260505232806 12 59 8.0 12.9 0.00 0.03 0.00 85 1031.2
20260505232306 12 78 4.8 9.7 0.00 0.03 0.00 85 1031.2
20260505231805 12 60 8.0 16.1 0.00 0.03 0.00 86 1031.2
20260505231305 12 57 6.4 14.5 0.00 0.03 0.00 86 1031.2
20260505230806 12 0 1.6 8.0 0.00 0.03 0.00 85 1031.2
20260505230305 12 64 4.8 11.3 0.00 0.03 0.00 85 1031.2
20260505225804 12 26 6.4 11.3 0.00 0.03 0.00 85 1031.2
20260505225306 12 21 4.8 9.7 0.00 0.03 0.00 85 1031.2
20260505224806 12 84 3.2 9.7 0.00 0.03 0.00 85 1030.7
20260505223806 12 64 6.4 9.7 0.00 0.03 0.00 85 1030.7
20260505222805 12 80 4.8 19.3 0.00 0.03 0.00 86 1030.7
20260505222306 12 205 3.2 12.9 0.00 0.03 0.00 87 1030.7
20260505221806 12 101 4.8 14.5 0.00 0.03 0.00 87 1030.7
20260505221305 12 109 1.6 9.7 0.00 0.03 0.00 87 1030.2
20260505220804 11 37 6.4 14.5 0.00 0.03 0.00 88 1030.2
20260505220304 11 75 4.8 8.0 0.00 0.03 0.00 88 1030.2
20260505215806 11 62 1.6 9.7 0.00 0.03 0.00 88 1030.2
20260505215306 11 87 4.8 8.0 0.00 0.03 0.00 89 1030.2
20260505214805 11 95 1.6 8.0 0.00 0.03 0.00 89 1030.2
20260505213806 11 65 4.8 11.3 0.00 0.03 0.00 89 1030.2
20260505213305 11 64 6.4 9.7 0.00 0.03 0.00 89 1030.2
20260505212806 11 45 1.6 3.2 0.00 0.03 0.00 89 1030.2
20260505212306 11 42 3.2 4.8 0.00 0.03 0.00 89 1030.2
20260505211806 11 64 1.6 4.8 0.00 0.03 0.00 89 1030.2
20260505211304 11 51 1.6 4.8 0.00 0.03 0.00 89 1030.2
20260505210805 11 59 3.2 8.0 0.00 0.03 0.00 89 1030.0
20260505210305 11 84 1.6 4.8 0.00 0.03 0.00 89 1030.0
20260505205805 11 69 4.8 14.5 0.00 0.03 0.00 90 1030.0
20260505204305 11 77 3.2 4.8 0.00 0.03 0.00 90 1030.0
20260505203805 11 172 4.8 11.3 0.00 0.03 0.00 90 1030.0
20260505202306 11 82 1.6 4.8 0.00 0.03 0.00 89 1029.7
20260505201805 11 69 1.6 4.8 0.00 0.03 0.00 89 1029.7
20260505201304 11 73 0.0 3.2 0.00 0.03 0.00 89 1029.7
20260505200805 11 123 3.2 4.8 0.00 0.03 0.00 88 1029.7
20260505200305 11 222 0.0 4.8 0.00 0.03 0.00 88 1029.7
20260505195805 11 82 1.6 4.8 0.00 0.03 0.00 89 1029.7
20260505195305 11 55 4.8 11.3 0.00 0.03 0.00 89 1029.7
20260505194805 11 117 3.2 4.8 0.00 0.03 0.00 88 1029.7
20260505194305 11 329 3.2 4.8 0.00 0.03 0.00 88 1029.7
20260505193805 11 52 1.6 4.8 0.00 0.03 0.00 88 1029.7
20260505192804 11 129 1.6 8.0 0.00 0.03 0.00 87 1029.7
20260505192306 11 38 0.0 4.8 0.00 0.03 0.00 87 1029.7
20260505191305 12 191 0.0 1.6 0.00 0.03 0.00 87 1029.7
20260505190807 12 196 0.0 4.8 0.00 0.03 0.00 87 1029.6
20260505185805 12 149 0.0 4.8 0.00 0.03 0.00 86 1029.6
20260505184805 12 93 1.6 3.2 0.00 0.03 0.00 86 1029.7
20260505184304 12 126 3.2 9.7 0.00 0.03 0.00 86 1029.7
20260505183804 12 72 1.6 8.0 0.00 0.03 0.00 86 1029.6
20260505183305 12 87 4.8 11.3 0.00 0.03 0.00 86 1029.6
20260505182805 12 98 3.2 8.0 0.00 0.03 0.00 86 1029.6
20260505182306 12 76 3.2 9.7 0.00 0.03 0.00 86 1029.6
20260505181805 12 103 3.2 9.7 0.00 0.03 0.00 86 1029.6
20260505181305 12 262 1.6 11.3 0.00 0.03 0.00 86 1029.6
20260505180305 11 152 1.6 4.8 0.00 0.03 0.00 86 1029.6
20260505175806 12 64 1.6 3.2 0.00 0.03 0.00 87 1029.6
20260505175306 12 64 1.6 4.8 0.00 0.03 0.00 87 1029.6
20260505174805 12 85 1.6 8.0 0.00 0.03 0.00 87 1029.6
20260505174305 12 103 3.2 11.3 0.00 0.03 0.00 88 1029.6
20260505173806 11 359 1.6 14.5 0.00 0.03 0.00 88 1029.7
20260505173305 11 82 4.8 9.7 0.00 0.03 0.00 89 1029.7
20260505172805 11 194 1.6 9.7 0.00 0.03 0.00 89 1029.7
20260505172306 11 31 0.0 3.2 0.00 0.03 0.00 89 1029.6
20260505171805 11 69 3.2 8.0 0.00 0.03 0.00 90 1029.6
20260505171306 11 47 3.2 4.8 0.00 0.03 0.00 90 1029.6
20260505170304 11 323 1.6 3.2 0.00 0.03 0.00 90 1029.6
20260505165805 11 74 1.6 4.8 0.00 0.03 0.00 90 1029.6
20260505164804 11 1 1.6 4.8 0.00 0.03 0.00 91 1029.6
20260505164305 11 41 0.0 3.2 0.00 0.03 0.00 91 1029.6
20260505163305 11 83 1.6 4.8 0.00 0.03 0.00 91 1029.4
20260505162807 11 88 4.8 8.0 0.00 0.03 0.00 91 1029.4
20260505162307 10 16 1.6 4.8 0.00 0.03 0.00 91 1029.4
20260505161804 10 352 3.2 4.8 0.00 0.03 0.00 91 1029.4
20260505161305 11 338 0.0 3.2 0.00 0.03 0.00 91 1029.4
20260505160819 11 325 1.6 3.2 0.00 0.03 0.00 90 1029.4
20260505152805 11 353 1.6 3.2 0.00 0.03 0.03 89 1029.4
20260505152305 11 288 1.6 4.8 0.00 0.03 0.03 89 1029.4
20260505150805 11 284 3.2 4.8 0.00 0.03 0.03 88 1029.4
20260505150305 11 296 3.2 4.8 0.00 0.03 0.03 88 1029.4
20260505140306 12 139 3.2 8.0 0.00 0.03 0.03 87 1029.4
20260505124806 12 178 1.6 4.8 0.00 0.03 0.03 83 1028.7
20260505123805 12 209 1.6 3.2 0.00 0.03 0.03 82 1028.7
20260505123305 13 204 0.0 3.2 0.00 0.03 0.03 82 1028.7
20260505122806 13 199 1.6 4.8 0.00 0.03 0.03 82 1028.7
20260505122305 13 151 1.6 3.2 0.00 0.03 0.03 82 1028.7
20260505121304 13 201 3.2 4.8 0.00 0.03 0.03 81 1028.7
20260505120804 13 239 0.0 3.2 0.00 0.03 0.03 81 1028.7
20260505120305 13 239 1.6 3.2 0.00 0.03 0.03 81 1028.7
20260505115804 13 175 1.6 4.8 0.00 0.03 0.03 81 1028.7
20260505115306 13 265 1.6 4.8 0.00 0.03 0.03 81 1028.6
20260505114305 13 295 1.6 4.8 0.00 0.03 0.03 81 1028.0
20260505113305 13 235 0.0 4.8 0.00 0.03 0.03 81 1028.0
20260505112804 13 181 1.6 4.8 0.00 0.03 0.03 81 1028.0
20260505112305 13 197 1.6 3.2 0.00 0.03 0.03 81 1028.0
20260505111806 13 192 1.6 3.2 0.00 0.03 0.03 81 1028.0
20260505111305 13 199 1.6 3.2 0.00 0.03 0.03 80 1028.0
20260505110806 14 209 1.6 3.2 0.00 0.03 0.03 80 1028.0
20260505110306 14 209 1.6 4.8 0.00 0.03 0.03 80 1028.0
20260505101804 15 199 1.6 4.8 0.00 0.03 0.03 78 1027.5
20260505101305 16 175 0.0 3.2 0.00 0.03 0.03 78 1027.5
20260505100804 16 175 1.6 4.8 0.00 0.03 0.03 77 1027.5
20260505100305 16 189 1.6 4.8 0.00 0.03 0.03 77 1027.5
20260505095805 16 156 0.0 3.2 0.00 0.03 0.03 76 1027.3
20260505095305 16 213 1.6 3.2 0.00 0.03 0.03 76 1027.3
20260505093806 17 176 1.6 4.8 0.00 0.03 0.03 74 1027.3
20260505093305 17 202 1.6 3.2 0.00 0.03 0.03 73 1027.2
20260505092805 17 206 1.6 4.8 0.00 0.03 0.03 73 1027.2
20260505092305 17 185 1.6 4.8 0.00 0.03 0.03 72 1026.7
20260505091306 17 181 1.6 4.8 0.00 0.03 0.03 72 1026.7
20260505090805 17 180 1.6 4.8 0.00 0.03 0.03 72 1026.7
20260505085804 17 138 0.0 1.6 0.00 0.03 0.03 72 1026.7
20260505085305 17 175 0.0 3.2 0.00 0.03 0.03 72 1026.7
20260505084804 18 185 1.6 4.8 0.00 0.03 0.03 70 1026.7
20260505084305 18 178 3.2 11.3 0.00 0.03 0.03 70 1026.7
20260505083805 18 161 1.6 4.8 0.00 0.03 0.03 69 1026.7
20260505082806 19 183 1.6 4.8 0.00 0.03 0.03 67 1026.7
20260505082306 19 156 1.6 3.2 0.00 0.03 0.03 66 1026.7
20260505081805 20 199 1.6 4.8 0.00 0.03 0.03 65 1026.7
20260505081306 19 159 1.6 4.8 0.00 0.03 0.03 65 1026.6
20260505080805 20 212 1.6 3.2 0.00 0.03 0.03 64 1026.6
20260505075805 19 213 4.8 8.0 0.00 0.03 0.03 66 1026.6
20260505074806 20 193 3.2 4.8 0.00 0.03 0.03 65 1026.6
20260505074305 20 223 4.8 9.7 0.00 0.03 0.03 65 1026.5
20260505073805 19 140 3.2 4.8 0.00 0.03 0.03 66 1026.5
20260505073306 19 233 3.2 4.8 0.00 0.03 0.03 66 1026.5
20260505072806 20 211 3.2 4.8 0.00 0.03 0.03 65 1026.5
20260505072305 19 214 3.2 4.8 0.00 0.03 0.03 64 1026.5
20260505071804 20 214 1.6 4.8 0.00 0.03 0.03 64 1026.5
20260505071305 20 233 1.6 9.7 0.00 0.03 0.03 64 1026.5
20260505070305 20 90 1.6 3.2 0.00 0.03 0.03 61 1026.6
20260505065805 20 49 1.6 4.8 0.00 0.03 0.03 62 1026.6
20260505065306 20 151 3.2 8.0 0.00 0.03 0.03 65 1026.6
20260505064305 20 218 3.2 9.7 0.00 0.03 0.03 64 1026.6
20260505063806 20 208 3.2 11.3 0.00 0.03 0.03 65 1026.6
20260505062806 20 117 1.6 4.8 0.00 0.03 0.03 63 1026.6
20260505062305 19 232 1.6 4.8 0.00 0.03 0.03 64 1026.6
20260505061804 18 165 0.0 3.2 0.00 0.03 0.03 69 1026.6
20260505061305 18 185 0.0 3.2 0.00 0.03 0.03 69 1026.7
20260505060805 18 214 1.6 4.8 0.00 0.03 0.03 68 1026.7
20260505055804 19 127 3.2 4.8 0.00 0.03 0.03 67 1026.7
20260505055306 19 185 3.2 4.8 0.00 0.03 0.03 70 1026.7
20260505054804 18 209 3.2 4.8 0.00 0.03 0.03 70 1026.7
20260505054304 18 192 4.8 8.0 0.00 0.03 0.03 69 1026.7
20260505053806 18 159 1.6 4.8 0.00 0.03 0.03 69 1026.7
20260505053304 19 183 1.6 4.8 0.00 0.03 0.03 66 1026.7
20260505052806 20 148 3.2 4.8 0.00 0.03 0.03 65 1026.7
20260505052305 20 28 3.2 8.0 0.00 0.03 0.03 65 1026.7
20260505051805 20 134 3.2 4.8 0.00 0.03 0.03 65 1026.7
20260505051305 20 107 4.8 9.7 0.00 0.03 0.03 67 1027.2
20260505050805 19 75 0.0 3.2 0.00 0.03 0.03 68 1027.2
20260505050306 18 184 0.0 1.6 0.00 0.03 0.03 70 1027.2
20260505041305 18 196 1.6 3.2 0.00 0.03 0.03 74 1028.0
20260505040805 18 196 1.6 4.8 0.00 0.03 0.03 73 1028.0
20260505040305 18 198 0.0 3.2 0.00 0.03 0.03 73 1028.0
20260505035805 17 122 0.0 4.8 0.00 0.03 0.03 74 1028.0